FW6229 Weather Reports


time (UTC)temp
C
wind
direction
speed
KPH
gust
KPH
rain 1hr
cm
rain 24hr
cm
rain mn
cm
humidity
%
barometer
mb
20260504050010 16 51 0.0 0.0 0.00 0.00 0.00 52 1011.0
20260504044508 17 61 0.0 0.0 0.00 0.00 0.00 52 1010.9
20260504041505 17 43 0.0 0.0 0.00 0.00 0.00 51 1010.2
20260504040006 17 149 0.0 0.0 0.00 0.00 0.00 54 1010.1
20260504034507 18 179 0.0 0.0 0.00 0.00 0.00 55 1009.9
20260504033006 18 189 0.0 0.0 0.00 0.00 0.00 53 1009.7
20260504031506 19 184 0.0 0.0 0.00 0.00 0.00 47 1009.5
20260504030005 20 186 0.0 0.0 0.00 0.00 0.00 54 1009.4
20260504024505 21 186 0.0 0.0 0.00 0.00 0.00 42 1009.2
20260504023006 22 188 0.0 0.0 0.00 0.00 0.00 49 1009.0
20260504021503 22 188 0.0 0.0 0.00 0.00 0.00 46 1008.9
20260504001529 19 188 0.0 0.0 0.00 0.00 0.00 56 1009.6
20260504000019 19 188 0.0 0.0 0.00 0.00 0.00 59 1009.8
20260503234518 21 184 0.0 0.0 0.00 0.00 0.00 55 1010.0
20260503233006 23 184 0.0 0.0 0.00 0.00 0.00 44 1010.2
20260503231507 23 184 0.0 0.0 0.00 0.00 0.00 39 1010.5
20260503230007 23 184 0.0 0.0 0.00 0.00 0.00 29 1010.7
20260503224505 23 184 0.0 0.0 0.00 0.00 0.00 30 1011.0
20260503223008 23 184 0.0 0.0 0.00 0.00 0.00 36 1011.2
20260503221505 23 184 0.0 0.0 0.00 0.00 0.00 37 1011.5
20260503220004 22 184 0.0 0.0 0.00 0.00 0.00 35 1011.8
20260503214506 21 184 0.0 0.0 0.00 0.00 0.00 38 1012.1
20260503211504 20 184 0.0 0.0 0.00 0.00 0.00 47 1012.6
20260503210008 19 184 0.0 0.0 0.00 0.00 0.00 48 1012.8
20260503204506 19 184 0.0 0.0 0.00 0.00 0.00 48 1013.1
20260503201505 18 182 0.0 0.0 0.00 0.00 0.00 58 1013.7
20260503194506 16 182 0.0 0.0 0.00 0.00 0.00 63 1014.4
20260503193006 15 182 0.0 0.0 0.00 0.00 0.00 70 1014.6
20260503191504 15 182 0.0 0.0 0.00 0.00 0.00 73 1014.9
20260503184505 13 178 0.0 0.0 0.00 0.00 0.00 74 1015.4
20260503180006 12 154 0.0 0.0 0.00 0.00 0.00 86 1016.0
20260503174505 11 154 0.0 0.0 0.00 0.00 0.00 87 1016.3
20260503171507 10 154 0.0 0.0 0.00 0.00 0.00 93 1017.0